| time (UTC) | temp F | wind direction | speed knots | gust knots | rain 1hr in | rain 24hr in | rain mn in | humidity % | barometer mb |
| 20260506081152 | 41 | 266 | 2.6 | 6.1 | 0.00 | 0.00 | 0.00 | 75 | 1015.4 |
| 20260506080650 | 41 | 262 | 2.6 | 6.1 | 0.00 | 0.00 | 0.00 | 75 | 1015.5 |
| 20260506080146 | 41 | 272 | 4.3 | 6.1 | 0.00 | 0.00 | 0.00 | 76 | 1015.5 |
| 20260506073130 | 42 | 239 | 1.7 | 3.5 | 0.00 | 0.00 | 0.00 | 81 | 1015.6 |
| 20260506072626 | 42 | 271 | 1.7 | 2.6 | 0.00 | 0.00 | 0.00 | 80 | 1015.9 |
| 20260506072125 | 42 | 245 | 1.7 | 2.6 | 0.00 | 0.00 | 0.00 | 81 | 1015.5 |
| 20260506071622 | 41 | 261 | 2.6 | 6.1 | 0.00 | 0.00 | 0.00 | 84 | 1015.4 |
| 20260506071119 | 41 | 259 | 1.7 | 5.2 | 0.00 | 0.00 | 0.00 | 86 | 1015.6 |
| 20260506070616 | 41 | 303 | 2.6 | 3.5 | 0.00 | 0.00 | 0.00 | 86 | 1015.5 |
| 20260506070114 | 41 | 320 | 2.6 | 2.6 | 0.00 | 0.00 | 0.00 | 86 | 1015.6 |
| 20260506062050 | 42 | 298 | 1.7 | 2.6 | 0.00 | 0.00 | 0.00 | 85 | 1015.5 |
| 20260506061546 | 42 | 288 | 1.7 | 2.6 | 0.00 | 0.00 | 0.00 | 85 | 1015.4 |
| 20260506061044 | 42 | 317 | 2.6 | 3.5 | 0.00 | 0.00 | 0.00 | 86 | 1015.5 |
| 20260506060542 | 41 | 294 | 3.5 | 3.5 | 0.00 | 0.00 | 0.00 | 86 | 1015.5 |
| 20260506051011 | 42 | 253 | 5.2 | 7.8 | 0.00 | 0.08 | 0.08 | 82 | 1015.6 |
| 20260506050509 | 43 | 301 | 3.5 | 7.8 | 0.00 | 0.08 | 0.08 | 82 | 1015.5 |
| 20260506044959 | 42 | 257 | 2.6 | 3.5 | 0.00 | 0.08 | 0.08 | 84 | 1015.7 |
| 20260506044457 | 42 | 303 | 5.2 | 6.1 | 0.00 | 0.08 | 0.08 | 86 | 1015.5 |
| 20260506043954 | 42 | 315 | 4.3 | 6.1 | 0.00 | 0.08 | 0.08 | 86 | 1015.3 |
| 20260506043451 | 42 | 328 | 3.5 | 11.3 | 0.00 | 0.08 | 0.08 | 86 | 1015.3 |
| 20260506042949 | 42 | 318 | 5.2 | 7.0 | 0.00 | 0.08 | 0.08 | 86 | 1015.1 |
| 20260506042448 | 41 | 309 | 7.0 | 11.3 | 0.12 | 0.08 | 0.08 | 88 | 1015.1 |
| 20260506041946 | 41 | 295 | 4.3 | 6.1 | 0.24 | 0.08 | 0.08 | 87 | 1015.7 |
| 20260506041444 | 41 | 289 | 5.2 | 8.7 | 0.35 | 0.06 | 0.06 | 85 | 1015.4 |
| 20260506040941 | 42 | 318 | 7.0 | 9.6 | 0.19 | 0.03 | 0.03 | 83 | 1014.8 |
| 20260506040438 | 43 | 301 | 7.0 | 9.6 | 0.00 | 0.00 | 0.00 | 82 | 1014.9 |
| 20260506035934 | 43 | 312 | 8.7 | 13.9 | 0.00 | 0.00 | 0.00 | 80 | 1014.6 |
| 20260506035432 | 44 | 289 | 11.3 | 15.6 | 0.00 | 0.00 | 0.00 | 77 | 1014.9 |
| 20260506034928 | 44 | 288 | 7.0 | 11.3 | 0.00 | 0.00 | 0.00 | 76 | 1014.8 |
| 20260506034425 | 44 | 266 | 8.7 | 14.8 | 0.00 | 0.00 | 0.00 | 76 | 1015.0 |
| 20260506033922 | 44 | 4 | 9.6 | 13.9 | 0.00 | 0.00 | 0.00 | 75 | 1014.8 |
| 20260506033420 | 45 | 341 | 9.6 | 18.2 | 0.00 | 0.00 | 0.00 | 75 | 1014.4 |
| 20260506032916 | 44 | 357 | 9.6 | 15.6 | 0.00 | 0.00 | 0.00 | 75 | 1014.4 |
| 20260506032413 | 44 | 346 | 10.4 | 16.5 | 0.00 | 0.00 | 0.00 | 75 | 1014.4 |
| 20260506031910 | 44 | 286 | 10.4 | 16.5 | 0.00 | 0.00 | 0.00 | 76 | 1014.4 |
| 20260506031407 | 45 | 315 | 12.2 | 15.6 | 0.00 | 0.00 | 0.00 | 77 | 1014.0 |
| 20260506030905 | 46 | 281 | 9.6 | 13.0 | 0.00 | 0.00 | 0.00 | 75 | 1014.0 |
| 20260506030403 | 46 | 12 | 10.4 | 15.6 | 0.00 | 0.00 | 0.00 | 69 | 1013.9 |
| 20260506025859 | 47 | 305 | 7.0 | 15.6 | 0.00 | 0.00 | 0.00 | 68 | 1013.8 |
| 20260506025356 | 47 | 308 | 7.8 | 12.2 | 0.00 | 0.00 | 0.00 | 67 | 1013.7 |
| 20260506024853 | 48 | 321 | 8.7 | 15.6 | 0.00 | 0.00 | 0.00 | 66 | 1014.0 |
| 20260506024350 | 49 | 320 | 8.7 | 11.3 | 0.00 | 0.00 | 0.00 | 65 | 1013.4 |
| 20260506023846 | 48 | 281 | 4.3 | 6.1 | 0.00 | 0.00 | 0.00 | 65 | 1013.5 |
| 20260506023343 | 47 | 284 | 1.7 | 3.5 | 0.00 | 0.00 | 0.00 | 66 | 1013.2 |
| 20260506022840 | 47 | 287 | 2.6 | 3.5 | 0.00 | 0.00 | 0.00 | 66 | 1013.3 |
| 20260506022337 | 48 | 277 | 0.9 | 1.7 | 0.00 | 0.00 | 0.00 | 65 | 1013.2 |
| 20260506021835 | 48 | 253 | 0.9 | 1.7 | 0.00 | 0.00 | 0.00 | 65 | 1013.2 |
| 20260506021332 | 49 | 252 | 1.7 | 2.6 | 0.00 | 0.00 | 0.00 | 64 | 1012.9 |
| 20260506020828 | 50 | 252 | 0.9 | 1.7 | 0.00 | 0.00 | 0.00 | 62 | 1012.9 |
| 20260506020326 | 50 | 249 | 0.9 | 2.6 | 0.00 | 0.00 | 0.00 | 62 | 1012.9 |
| 20260506015824 | 51 | 262 | 1.7 | 2.6 | 0.00 | 0.00 | 0.00 | 61 | 1012.7 |
| 20260506015321 | 51 | 266 | 1.7 | 1.7 | 0.00 | 0.00 | 0.00 | 59 | 1012.4 |
| 20260506014818 | 51 | 225 | 1.7 | 5.2 | 0.00 | 0.00 | 0.00 | 58 | 1012.5 |
| 20260506014315 | 51 | 254 | 1.7 | 2.6 | 0.00 | 0.00 | 0.00 | 57 | 1012.5 |
| 20260506013811 | 51 | 244 | 1.7 | 3.5 | 0.00 | 0.00 | 0.00 | 57 | 1012.4 |
| 20260506013309 | 51 | 310 | 4.3 | 7.0 | 0.00 | 0.00 | 0.00 | 57 | 1012.7 |
| 20260506012805 | 52 | 248 | 5.2 | 7.8 | 0.00 | 0.00 | 0.00 | 55 | 1012.4 |
| 20260506012307 | 52 | 195 | 4.3 | 6.1 | 0.00 | 0.00 | 0.00 | 55 | 1012.1 |
| 20260506011759 | 52 | 240 | 5.2 | 8.7 | 0.00 | 0.00 | 0.00 | 55 | 1012.1 |
| 20260506011256 | 52 | 243 | 2.6 | 7.0 | 0.00 | 0.00 | 0.00 | 55 | 1012.2 |
| 20260506010754 | 52 | 247 | 4.3 | 7.0 | 0.00 | 0.00 | 0.00 | 53 | 1012.7 |
| 20260506010251 | 52 | 253 | 5.2 | 7.8 | 0.00 | 0.00 | 0.00 | 53 | 1012.3 |
| 20260506005748 | 52 | 254 | 7.0 | 8.7 | 0.00 | 0.00 | 0.00 | 53 | 1012.1 |
| 20260506005245 | 52 | 265 | 4.3 | 7.0 | 0.00 | 0.00 | 0.00 | 53 | 1012.1 |
| 20260506004740 | 53 | 251 | 6.1 | 7.8 | 0.00 | 0.00 | 0.00 | 53 | 1011.9 |
| 20260506004239 | 53 | 268 | 6.1 | 9.6 | 0.00 | 0.00 | 0.00 | 52 | 1011.9 |
| 20260506003734 | 53 | 256 | 4.3 | 9.6 | 0.00 | 0.00 | 0.00 | 51 | 1012.1 |
| 20260506003231 | 53 | 211 | 4.3 | 12.2 | 0.00 | 0.00 | 0.00 | 51 | 1011.9 |
| 20260506002727 | 53 | 224 | 6.1 | 9.6 | 0.00 | 0.00 | 0.00 | 50 | 1011.9 |
| 20260506002223 | 54 | 231 | 4.3 | 11.3 | 0.00 | 0.00 | 0.00 | 50 | 1011.9 |
| 20260506001719 | 54 | 206 | 8.7 | 9.6 | 0.00 | 0.00 | 0.00 | 50 | 1011.9 |
| 20260506001217 | 54 | 241 | 5.2 | 11.3 | 0.00 | 0.00 | 0.00 | 49 | 1011.9 |
| 20260506000713 | 54 | 227 | 4.3 | 7.0 | 0.00 | 0.00 | 0.00 | 50 | 1012.1 |
| 20260506000212 | 56 | 219 | 6.1 | 7.8 | 0.00 | 0.00 | 0.00 | 47 | 1011.8 |
| 20260505235708 | 56 | 275 | 4.3 | 9.6 | 0.00 | 0.00 | 0.00 | 48 | 1011.8 |
| 20260505235206 | 55 | 212 | 5.2 | 7.0 | 0.00 | 0.00 | 0.00 | 50 | 1011.8 |
| 20260505234703 | 56 | 251 | 5.2 | 9.6 | 0.00 | 0.00 | 0.00 | 49 | 1012.1 |
| 20260505234200 | 57 | 285 | 5.2 | 8.7 | 0.00 | 0.00 | 0.00 | 48 | 1012.1 |
| 20260505233656 | 57 | 240 | 3.5 | 8.7 | 0.00 | 0.00 | 0.00 | 48 | 1011.8 |
| 20260505233154 | 56 | 223 | 3.5 | 8.7 | 0.00 | 0.00 | 0.00 | 50 | 1011.9 |
| 20260505232652 | 56 | 265 | 3.5 | 13.9 | 0.00 | 0.00 | 0.00 | 50 | 1011.9 |
| 20260505232149 | 56 | 244 | 6.1 | 8.7 | 0.00 | 0.00 | 0.00 | 51 | 1012.2 |
| 20260505231645 | 56 | 232 | 4.3 | 6.1 | 0.00 | 0.00 | 0.00 | 52 | 1012.1 |
| 20260505231145 | 55 | 258 | 6.1 | 8.7 | 0.00 | 0.00 | 0.00 | 52 | 1012.1 |
| 20260505230642 | 55 | 223 | 7.8 | 12.2 | 0.00 | 0.00 | 0.00 | 53 | 1012.1 |
| 20260505230138 | 55 | 288 | 7.0 | 9.6 | 0.00 | 0.00 | 0.00 | 54 | 1012.1 |
| 20260505225634 | 54 | 252 | 7.0 | 9.6 | 0.00 | 0.00 | 0.00 | 54 | 1012.1 |
| 20260505225131 | 53 | 241 | 5.2 | 7.0 | 0.00 | 0.00 | 0.00 | 58 | 1012.1 |
| 20260505224628 | 53 | 237 | 6.1 | 12.2 | 0.00 | 0.00 | 0.00 | 58 | 1012.2 |
| 20260505224125 | 52 | 242 | 8.7 | 11.3 | 0.00 | 0.00 | 0.00 | 58 | 1012.2 |
| 20260505223622 | 51 | 190 | 7.8 | 9.6 | 0.00 | 0.00 | 0.00 | 61 | 1012.4 |
| 20260505223118 | 51 | 213 | 13.0 | 15.6 | 0.00 | 0.00 | 0.00 | 59 | 1012.4 |
| 20260505222615 | 53 | 228 | 12.2 | 20.9 | 0.00 | 0.00 | 0.00 | 57 | 1012.9 |
| 20260505222111 | 52 | 247 | 7.8 | 13.0 | 0.00 | 0.00 | 0.00 | 59 | 1012.7 |
| 20260505221608 | 54 | 292 | 10.4 | 13.0 | 0.00 | 0.00 | 0.00 | 55 | 1012.7 |
| 20260505221105 | 54 | 286 | 5.2 | 11.3 | 0.00 | 0.00 | 0.00 | 54 | 1012.7 |
| 20260505220602 | 55 | 234 | 12.2 | 15.6 | 0.00 | 0.00 | 0.00 | 54 | 1012.5 |
| 20260505220100 | 54 | 238 | 7.0 | 13.0 | 0.00 | 0.00 | 0.00 | 54 | 1012.5 |
| 20260505215558 | 54 | 264 | 4.3 | 13.0 | 0.00 | 0.00 | 0.00 | 55 | 1012.5 |
| 20260505215055 | 54 | 231 | 5.2 | 12.2 | 0.00 | 0.00 | 0.00 | 56 | 1012.5 |
| 20260505214553 | 56 | 248 | 7.0 | 13.0 | 0.00 | 0.00 | 0.00 | 54 | 1012.8 |
| 20260505214050 | 56 | 250 | 7.0 | 12.2 | 0.00 | 0.00 | 0.00 | 53 | 1012.5 |
| 20260505213548 | 56 | 210 | 9.6 | 14.8 | 0.00 | 0.00 | 0.00 | 52 | 1012.7 |
| 20260505213044 | 56 | 208 | 11.3 | 16.5 | 0.00 | 0.00 | 0.00 | 52 | 1012.7 |
| 20260505212540 | 56 | 165 | 9.6 | 13.9 | 0.00 | 0.00 | 0.00 | 53 | 1012.7 |
| 20260505212038 | 57 | 192 | 8.7 | 18.2 | 0.00 | 0.00 | 0.00 | 50 | 1012.7 |
| 20260505211535 | 56 | 276 | 13.0 | 18.2 | 0.00 | 0.00 | 0.00 | 53 | 1012.7 |
| 20260505211031 | 55 | 245 | 11.3 | 20.0 | 0.00 | 0.00 | 0.00 | 54 | 1013.0 |
| 20260505210528 | 57 | 199 | 13.9 | 16.5 | 0.00 | 0.00 | 0.00 | 52 | 1013.2 |
| 20260505210025 | 57 | 325 | 8.7 | 13.0 | 0.00 | 0.00 | 0.00 | 54 | 1012.8 |
| 20260505205523 | 56 | 216 | 5.2 | 13.9 | 0.00 | 0.00 | 0.00 | 56 | 1012.9 |
| 20260505205020 | 56 | 219 | 7.8 | 13.0 | 0.00 | 0.00 | 0.00 | 55 | 1013.0 |
| 20260505204518 | 55 | 256 | 11.3 | 16.5 | 0.00 | 0.00 | 0.00 | 57 | 1013.2 |
| 20260505204015 | 56 | 281 | 13.0 | 14.8 | 0.00 | 0.00 | 0.00 | 56 | 1012.9 |
| 20260505203511 | 55 | 197 | 8.7 | 15.6 | 0.00 | 0.00 | 0.00 | 58 | 1013.3 |
| 20260505203008 | 54 | 291 | 8.7 | 12.2 | 0.00 | 0.00 | 0.00 | 61 | 1013.2 |
| 20260505202504 | 54 | 268 | 7.8 | 15.6 | 0.00 | 0.00 | 0.00 | 60 | 1013.3 |
| 20260505202000 | 54 | 217 | 7.8 | 13.9 | 0.00 | 0.00 | 0.00 | 61 | 1013.4 |
| 20260505201457 | 53 | 238 | 7.8 | 16.5 | 0.00 | 0.00 | 0.00 | 61 | 1013.0 |
| 20260505200955 | 53 | 260 | 7.0 | 12.2 | 0.00 | 0.00 | 0.00 | 64 | 1013.0 |
| 20260505200453 | 54 | 258 | 6.1 | 13.9 | 0.00 | 0.00 | 0.00 | 61 | 1013.3 |
| 20260505195948 | 54 | 187 | 7.8 | 12.2 | 0.00 | 0.00 | 0.00 | 62 | 1013.4 |
| 20260505195446 | 54 | 263 | 10.4 | 14.8 | 0.00 | 0.00 | 0.00 | 63 | 1013.3 |
| 20260505194943 | 54 | 223 | 7.0 | 13.9 | 0.00 | 0.00 | 0.00 | 67 | 1013.3 |
| 20260505194440 | 53 | 273 | 7.0 | 13.0 | 0.00 | 0.00 | 0.00 | 67 | 1013.2 |
| 20260505193940 | 53 | 230 | 6.1 | 13.9 | 0.00 | 0.00 | 0.00 | 69 | 1013.2 |
| 20260505193438 | 52 | 257 | 7.0 | 13.0 | 0.00 | 0.00 | 0.00 | 72 | 1013.2 |
| 20260505192935 | 52 | 294 | 7.0 | 13.0 | 0.00 | 0.00 | 0.00 | 75 | 1013.3 |
| 20260505192434 | 50 | 229 | 4.3 | 9.6 | 0.00 | 0.00 | 0.00 | 80 | 1013.4 |
| 20260505191931 | 50 | 208 | 9.6 | 13.0 | 0.00 | 0.00 | 0.00 | 79 | 1013.5 |
| 20260505191430 | 50 | 198 | 6.1 | 8.7 | 0.00 | 0.00 | 0.00 | 83 | 1013.4 |
| 20260505190926 | 49 | 241 | 6.1 | 9.6 | 0.00 | 0.00 | 0.00 | 83 | 1013.7 |
| 20260505190421 | 50 | 245 | 7.8 | 13.0 | 0.00 | 0.00 | 0.00 | 76 | 1013.9 |
| 20260505185916 | 52 | 272 | 5.2 | 15.6 | 0.00 | 0.00 | 0.00 | 67 | 1013.7 |
| 20260505185414 | 56 | 253 | 9.6 | 18.2 | 0.00 | 0.00 | 0.00 | 55 | 1013.3 |
| 20260505184910 | 56 | 182 | 4.3 | 8.7 | 0.00 | 0.00 | 0.00 | 52 | 1013.3 |
| 20260505184407 | 57 | 226 | 6.1 | 12.2 | 0.00 | 0.00 | 0.00 | 49 | 1013.2 |
| 20260505183904 | 58 | 173 | 9.6 | 12.2 | 0.00 | 0.00 | 0.00 | 48 | 1013.2 |
| 20260505183401 | 57 | 157 | 6.1 | 13.9 | 0.00 | 0.00 | 0.00 | 50 | 1013.2 |
| 20260505182857 | 56 | 234 | 8.7 | 12.2 | 0.00 | 0.00 | 0.00 | 51 | 1013.4 |
| 20260505182355 | 56 | 244 | 7.0 | 11.3 | 0.00 | 0.00 | 0.00 | 52 | 1013.5 |
| 20260505181851 | 55 | 222 | 10.4 | 12.2 | 0.00 | 0.00 | 0.00 | 51 | 1013.4 |
| 20260505181348 | 55 | 221 | 7.8 | 8.7 | 0.00 | 0.00 | 0.00 | 54 | 1013.4 |
| 20260505180845 | 55 | 250 | 5.2 | 8.7 | 0.00 | 0.00 | 0.00 | 53 | 1013.5 |
| 20260505180341 | 54 | 206 | 7.0 | 9.6 | 0.00 | 0.00 | 0.00 | 53 | 1013.5 |
| 20260505175838 | 55 | 230 | 7.8 | 12.2 | 0.00 | 0.00 | 0.00 | 53 | 1013.5 |
| 20260505175334 | 55 | 214 | 7.0 | 7.8 | 0.00 | 0.00 | 0.00 | 52 | 1013.8 |
| 20260505174831 | 55 | 216 | 6.1 | 11.3 | 0.00 | 0.00 | 0.00 | 51 | 1013.7 |
| 20260505174329 | 55 | 188 | 3.5 | 6.1 | 0.00 | 0.00 | 0.00 | 51 | 1013.5 |
| 20260505173824 | 54 | 187 | 0.0 | 3.5 | 0.00 | 0.00 | 0.00 | 52 | 1013.8 |
| 20260505173321 | 54 | 212 | 3.5 | 7.8 | 0.00 | 0.00 | 0.00 | 52 | 1013.7 |
| 20260505172818 | 54 | 216 | 4.3 | 7.8 | 0.00 | 0.00 | 0.00 | 53 | 1013.8 |
| 20260505172316 | 54 | 167 | 3.5 | 7.0 | 0.00 | 0.00 | 0.00 | 51 | 1013.9 |
| 20260505171810 | 55 | 236 | 0.9 | 6.1 | 0.00 | 0.00 | 0.00 | 51 | 1014.0 |
| 20260505171307 | 54 | 162 | 0.9 | 2.6 | 0.00 | 0.00 | 0.00 | 52 | 1014.0 |
| 20260505170803 | 52 | 168 | 0.9 | 1.7 | 0.00 | 0.00 | 0.00 | 54 | 1014.0 |
| 20260505170301 | 53 | 224 | 4.3 | 6.1 | 0.00 | 0.00 | 0.00 | 52 | 1013.9 |
| 20260505165755 | 53 | 281 | 2.6 | 3.5 | 0.00 | 0.00 | 0.00 | 53 | 1014.1 |
| 20260505165251 | 51 | 209 | 0.0 | 2.6 | 0.00 | 0.00 | 0.00 | 55 | 1014.0 |
| 20260505164747 | 51 | 253 | 2.6 | 6.1 | 0.00 | 0.00 | 0.00 | 55 | 1014.1 |
| 20260505164244 | 51 | 326 | 4.3 | 7.0 | 0.00 | 0.00 | 0.00 | 55 | 1014.0 |
| 20260505163742 | 50 | 303 | 3.5 | 6.1 | 0.00 | 0.00 | 0.00 | 57 | 1014.0 |
| 20260505163241 | 50 | 309 | 4.3 | 7.8 | 0.00 | 0.00 | 0.00 | 57 | 1014.4 |
| 20260505162738 | 50 | 351 | 6.1 | 7.0 | 0.00 | 0.00 | 0.00 | 57 | 1014.3 |
| 20260505162235 | 51 | 341 | 3.5 | 3.5 | 0.00 | 0.00 | 0.00 | 56 | 1014.4 |
| 20260505161731 | 50 | 221 | 2.6 | 6.1 | 0.00 | 0.00 | 0.00 | 57 | 1014.4 |
| 20260505161230 | 50 | 255 | 5.2 | 7.8 | 0.00 | 0.00 | 0.00 | 56 | 1014.5 |
| 20260505160726 | 50 | 3 | 3.5 | 6.1 | 0.00 | 0.00 | 0.00 | 57 | 1014.4 |
| 20260505160225 | 50 | 340 | 3.5 | 7.8 | 0.00 | 0.00 | 0.00 | 56 | 1014.4 |
| 20260505153203 | 50 | 268 | 3.5 | 3.5 | 0.00 | 0.00 | 0.00 | 56 | 1014.8 |
| 20260505152700 | 50 | 319 | 2.6 | 8.7 | 0.00 | 0.00 | 0.00 | 57 | 1014.5 |
| 20260505152156 | 49 | 317 | 2.6 | 7.8 | 0.00 | 0.00 | 0.00 | 59 | 1014.6 |
| 20260505151651 | 49 | 352 | 4.3 | 9.6 | 0.00 | 0.00 | 0.00 | 58 | 1014.8 |
| 20260505151149 | 49 | 264 | 1.7 | 5.2 | 0.00 | 0.00 | 0.00 | 60 | 1014.9 |
| 20260505150645 | 49 | 304 | 4.3 | 5.2 | 0.00 | 0.00 | 0.00 | 61 | 1015.0 |
| 20260505150142 | 48 | 272 | 2.6 | 5.2 | 0.00 | 0.00 | 0.00 | 61 | 1014.8 |
| 20260505140610 | 52 | 247 | 2.6 | 7.0 | 0.00 | 0.00 | 0.00 | 49 | 1014.9 |
| 20260505140108 | 52 | 265 | 2.6 | 5.2 | 0.00 | 0.00 | 0.00 | 49 | 1014.9 |
| 20260505125024 | 50 | 278 | 5.2 | 8.7 | 0.00 | 0.00 | 0.00 | 49 | 1014.4 |
| 20260505124520 | 50 | 273 | 3.5 | 7.8 | 0.00 | 0.00 | 0.00 | 49 | 1014.4 |
| 20260505124017 | 50 | 262 | 5.2 | 7.0 | 0.00 | 0.00 | 0.00 | 48 | 1014.3 |
| 20260505123514 | 50 | 276 | 1.7 | 6.1 | 0.00 | 0.00 | 0.00 | 47 | 1014.3 |
| 20260505123009 | 50 | 266 | 3.5 | 5.2 | 0.00 | 0.00 | 0.00 | 47 | 1014.4 |
| 20260505122507 | 51 | 253 | 3.5 | 5.2 | 0.00 | 0.00 | 0.00 | 46 | 1014.4 |
| 20260505122004 | 51 | 252 | 4.3 | 5.2 | 0.00 | 0.00 | 0.00 | 46 | 1014.5 |
| 20260505121500 | 51 | 225 | 2.6 | 6.1 | 0.00 | 0.00 | 0.00 | 45 | 1014.4 |
| 20260505120956 | 51 | 264 | 2.6 | 5.2 | 0.00 | 0.00 | 0.00 | 45 | 1014.3 |
| 20260505120453 | 51 | 236 | 4.3 | 5.2 | 0.00 | 0.00 | 0.00 | 44 | 1014.3 |
| 20260505115952 | 51 | 239 | 2.6 | 6.1 | 0.00 | 0.00 | 0.00 | 44 | 1014.1 |
| 20260505115449 | 51 | 240 | 3.5 | 5.2 | 0.00 | 0.00 | 0.00 | 43 | 1014.3 |
| 20260505114947 | 51 | 232 | 4.3 | 6.1 | 0.00 | 0.00 | 0.00 | 43 | 1014.3 |
| 20260505114443 | 51 | 249 | 2.6 | 2.6 | 0.00 | 0.00 | 0.00 | 42 | 1014.0 |
| 20260505113940 | 51 | 233 | 2.6 | 3.5 | 0.00 | 0.00 | 0.00 | 41 | 1013.9 |
| 20260505113436 | 51 | 237 | 1.7 | 6.1 | 0.00 | 0.00 | 0.00 | 41 | 1014.3 |
| 20260505112931 | 51 | 228 | 2.6 | 3.5 | 0.00 | 0.00 | 0.00 | 40 | 1014.3 |
| 20260505112429 | 52 | 233 | 0.9 | 2.6 | 0.00 | 0.00 | 0.00 | 40 | 1014.3 |
| 20260505111925 | 52 | 234 | 2.6 | 6.1 | 0.00 | 0.00 | 0.00 | 39 | 1014.1 |
| 20260505111420 | 52 | 244 | 3.5 | 7.0 | 0.00 | 0.00 | 0.00 | 39 | 1014.3 |
| 20260505110917 | 51 | 226 | 4.3 | 6.1 | 0.00 | 0.00 | 0.00 | 40 | 1014.3 |
| 20260505110414 | 52 | 224 | 1.7 | 2.6 | 0.00 | 0.00 | 0.00 | 40 | 1014.4 |
| 20260505101844 | 52 | 225 | 3.5 | 5.2 | 0.00 | 0.00 | 0.00 | 36 | 1014.0 |
| 20260505101339 | 51 | 251 | 3.5 | 3.5 | 0.00 | 0.00 | 0.00 | 36 | 1013.9 |
| 20260505100835 | 51 | 208 | 3.5 | 3.5 | 0.00 | 0.00 | 0.00 | 39 | 1013.8 |
| 20260505100332 | 51 | 213 | 1.7 | 2.6 | 0.00 | 0.00 | 0.00 | 39 | 1013.9 |
| 20260505095828 | 52 | 205 | 2.6 | 3.5 | 0.00 | 0.00 | 0.00 | 38 | 1014.0 |
| 20260505095326 | 53 | 187 | 4.3 | 6.1 | 0.00 | 0.00 | 0.00 | 36 | 1013.9 |
| 20260505094821 | 53 | 211 | 2.6 | 3.5 | 0.00 | 0.00 | 0.00 | 30 | 1013.7 |
| 20260505094318 | 53 | 261 | 2.6 | 3.5 | 0.00 | 0.00 | 0.00 | 33 | 1013.8 |
| 20260505093814 | 53 | 259 | 0.9 | 2.6 | 0.00 | 0.00 | 0.00 | 34 | 1013.5 |
| 20260505093312 | 53 | 323 | 5.2 | 7.8 | 0.00 | 0.00 | 0.00 | 34 | 1013.8 |
| 20260505092808 | 53 | 279 | 1.7 | 3.5 | 0.00 | 0.00 | 0.00 | 36 | 1013.8 |
| 20260505092307 | 53 | 238 | 0.9 | 1.7 | 0.00 | 0.00 | 0.00 | 38 | 1013.9 |
| 20260505091804 | 53 | 295 | 2.6 | 6.1 | 0.00 | 0.00 | 0.00 | 37 | 1013.8 |
| 20260505091301 | 54 | 307 | 3.5 | 6.1 | 0.00 | 0.00 | 0.00 | 37 | 1014.0 |
| 20260505090759 | 54 | 241 | 6.1 | 9.6 | 0.00 | 0.00 | 0.00 | 37 | 1014.1 |
| 20260505090257 | 54 | 275 | 2.6 | 6.1 | 0.00 | 0.00 | 0.00 | 37 | 1014.0 |
| 20260505085754 | 54 | 275 | 3.5 | 12.2 | 0.00 | 0.00 | 0.00 | 37 | 1013.9 |
| 20260505085253 | 54 | 265 | 6.1 | 8.7 | 0.00 | 0.00 | 0.00 | 37 | 1014.0 |
| 20260505084749 | 54 | 258 | 6.1 | 8.7 | 0.00 | 0.00 | 0.00 | 37 | 1013.9 |
| 20260505084244 | 55 | 293 | 3.5 | 7.8 | 0.00 | 0.00 | 0.00 | 37 | 1014.0 |
| 20260505083740 | 55 | 302 | 4.3 | 8.7 | 0.00 | 0.00 | 0.00 | 36 | 1014.4 |
| 20260505083237 | 55 | 256 | 6.1 | 11.3 | 0.00 | 0.00 | 0.00 | 36 | 1014.1 |
| 20260505082733 | 55 | 304 | 5.2 | 7.0 | 0.00 | 0.00 | 0.00 | 36 | 1014.1 |
| 20260505082230 | 55 | 265 | 6.1 | 9.6 | 0.00 | 0.00 | 0.00 | 36 | 1014.3 |
| 20260505081726 | 55 | 253 | 5.2 | 7.8 | 0.00 | 0.00 | 0.00 | 36 | 1014.3 |